Newport, RI

6:47 AM EDT on August 20, 2017 (GMT -0400)
Newport State

Weather History for KUUU - March, 2013

Change the Weather History Date:

Friday, March 22, 2013

  Actual Average Record
Temperature  
Mean Temperature 33 °F -  
Max Temperature 39 °F 46 °F 64 °F (1979)
Min Temperature 27 °F 31 °F 16 °F (1988)
Degree Days  
Heating Degree Days 32    
Moisture  
Dew Point 18 °F    
Average Humidity 54    
Maximum Humidity 86    
Minimum Humidity 41    
Precipitation  
Precipitation 0.00 in - - ()
Sea Level Pressure  
Sea Level Pressure 29.68 in    
Wind  
Wind Speed 10 mph (WNW)    
Max Wind Speed 16 mph    
Max Gust Speed 26 mph    
Visibility 10 miles    
Events      
Averages and records for this station are not official NWS values.
T = Trace of Precipitation, MM = Missing Value Source: NWS Daily Summary

Daily Weather History Graph

Daily Weather History Graph

Search for Another Location

Airport or City:

Trip Planner

Search our weather history database for the weather conditions in past years. The results will help you decide how hot, cold, wet, or windy it might be!

Date:

Astronomy

Mar. 22, 2013 Rise Set
Actual Time 6:44 AM EDT 6:59 PM EDT
Civil Twilight 6:17 AM EDT 7:27 PM EDT
Nautical Twilight 5:44 AM EDT 7:59 PM EDT
Astronomical Twilight 5:11 AM EDT 8:33 PM EDT
Moon 2:20 PM EDT (3/22) 3:46 AM EDT (3/22)
Length of Visible Light 13h 10m
Length of Day
12h 15m
Waxing Gibbous, 77% of the Moon is Illuminated
Mar 22
Waxing Gibbous
Mar 27
Full
Apr 3
Last Quarter
Apr 10
New
Apr 18
First Quarter

Hourly Weather History & Observations

Time (EDT) Temp. Windchill Dew Point Humidity Pressure Visibility Wind Dir Wind Speed Gust Speed Precip Events Conditions
12:14 AM 30.2 °F 23.4 °F 26.6 °F 86% 29.61 in 9.0 mi NW 6.9 mph - 0.00 in   Overcast
12:53 AM 30.9 °F 23.5 °F 25.0 °F 79% 29.62 in 10.0 mi NW 8.1 mph - 0.00 in   Overcast
1:53 AM 30.9 °F 21.2 °F 19.9 °F 64% 29.62 in 10.0 mi NW 12.7 mph 20.7 mph N/A   Overcast
2:53 AM 30.0 °F 20.5 °F 17.1 °F 59% 29.62 in 10.0 mi NW 11.5 mph 20.7 mph N/A   Overcast
3:53 AM 30.0 °F 20.0 °F 17.1 °F 59% 29.61 in 10.0 mi NW 12.7 mph - N/A   Overcast
4:53 AM 28.9 °F 19.2 °F 16.0 °F 58% 29.62 in 10.0 mi WNW 11.5 mph - N/A   Overcast
5:53 AM 28.0 °F 20.0 °F 16.0 °F 61% 29.63 in 10.0 mi NW 8.1 mph - N/A   Clear
6:53 AM 27.0 °F 17.3 °F 15.1 °F 61% 29.65 in 10.0 mi WNW 10.4 mph 16.1 mph N/A   Clear
7:53 AM 27.0 °F 18.0 °F 15.1 °F 61% 29.67 in 10.0 mi WNW 9.2 mph - N/A   Clear
8:53 AM 28.9 °F 19.2 °F 15.1 °F 56% 29.69 in 10.0 mi WNW 11.5 mph - N/A   Clear
9:53 AM 32.0 °F 24.2 °F 15.1 °F 50% 29.69 in 10.0 mi WNW 9.2 mph - N/A   Clear
10:53 AM 34.0 °F 27.2 °F 14.0 °F 44% 29.69 in 10.0 mi WNW 8.1 mph - N/A   Clear
11:53 AM 36.0 °F 29.0 °F 14.0 °F 41% 29.69 in 10.0 mi WNW 9.2 mph - N/A   Clear
12:53 PM 37.9 °F 31.5 °F 18.0 °F 45% 29.68 in 10.0 mi West 9.2 mph - N/A   Mostly Cloudy
1:53 PM 39.0 °F 31.4 °F 18.0 °F 43% 29.68 in 10.0 mi WNW 12.7 mph 18.4 mph N/A   Mostly Cloudy
2:53 PM 39.9 °F 31.4 °F 18.0 °F 41% 29.67 in 10.0 mi WNW 16.1 mph 24.2 mph N/A   Mostly Cloudy
3:53 PM 37.9 °F 30.9 °F 16.0 °F 41% 29.67 in 10.0 mi WNW 10.4 mph - N/A   Mostly Cloudy
4:53 PM 37.9 °F 31.5 °F 17.1 °F 43% 29.68 in 10.0 mi WNW 9.2 mph 20.7 mph N/A   Overcast
5:53 PM 37.9 °F 30.9 °F 17.1 °F 43% 29.69 in 10.0 mi West 10.4 mph 16.1 mph N/A   Overcast
6:53 PM 37.0 °F 29.8 °F 18.0 °F 46% 29.71 in 10.0 mi West 10.4 mph 17.3 mph N/A   Overcast
7:53 PM 36.0 °F 30.3 °F 19.0 °F 50% 29.74 in 10.0 mi West 6.9 mph - N/A   Overcast
8:53 PM 36.0 °F 31.1 °F 19.0 °F 50% 29.75 in 10.0 mi West 5.8 mph - N/A   Mostly Cloudy
9:53 PM 36.0 °F 32.1 °F 19.0 °F 50% 29.76 in 10.0 mi West 4.6 mph - N/A   Overcast
10:53 PM 34.0 °F 24.2 °F 21.0 °F 59% 29.76 in 10.0 mi West 15.0 mph 21.9 mph N/A   Partly Cloudy
11:53 PM 33.1 °F 23.0 °F 19.9 °F 59% 29.77 in 10.0 mi WNW 15.0 mph 26.5 mph N/A   Clear